Home   Weather   Newark   Past weeks
Flag for USA

Past Weather in Newark, New Jersey, USA — Yesterday and Last 2 Weeks

Now
89 °F

Broken clouds.


Feels Like: 91 °F
Forecast: 93 / 77 °F
Wind: 12 mph from Southwest

Location: Newark International Airport

Current Time: Jul 16, 2019 at 8:50:16 pm

Latest Report: Jul 16, 2019 at 7:51 pm


Visibility: 10 mi

Pressure: 29.99 "Hg

Humidity: 45%

Dew Point: 65 °F

Location of NewarkLocation

Past Weather in Newark — Graph

°F

Newark Temperature Yesterday

Maximum temperature yesterday: 88 °F (at 3:51 pm)
Minimum temperature yesterday: 70 °F (at 5:51 am)
Average temperature yesterday: 80 °F

High & Low Weather Summary for the Past Weeks

 TemperatureHumidityPressure
High93 °F (Jul 16, 4:51 pm)97% (Jul 11, 10:11 pm)30.16 "Hg (Jul 11, 10:11 pm)
Low68 °F (Jul 2, 4:51 am)28% (Jul 9, 3:51 pm)29.70 "Hg (Jul 12, 4:51 am)
Average80 °F64%29.94 "Hg
* Reported Jul 1 6:51 pm — Jul 16 6:51 pm, Newark. Weather by CustomWeather, © 2019

Note: Actual official high and low records may vary slightly from our data, if they occured in-between our weather recording intervals... More about our weather records

Advertising

Newark Weather History for the Previous 24 Hours

Scroll right to see more
 ConditionsComfort  
Time TempWeatherWind HumidityBarometerVisibility
6:51 pm
Tue, Jul 16
90 °FPartly sunny.13 mph43%29.98 "Hg10 mi
5:51 pm90 °FPartly sunny.8 mph45%29.98 "Hg10 mi
4:51 pm93 °FPartly sunny.9 mph38%29.99 "Hg10 mi
3:51 pm92 °FPartly sunny.9 mph40%30.00 "Hg10 mi
2:51 pm92 °FPartly sunny.9 mph37%30.02 "Hg10 mi
1:51 pm90 °FPartly sunny.12 mph41%30.03 "Hg10 mi
12:51 pm90 °FPartly sunny.14 mph38%30.05 "Hg10 mi
11:51 am89 °FScattered clouds.16 mph38%30.06 "Hg10 mi
10:51 am86 °FScattered clouds.13 mph42%30.07 "Hg10 mi
9:51 am85 °FScattered clouds.10 mph45%30.08 "Hg10 mi
8:51 am81 °FPartly sunny.5 mph51%30.09 "Hg10 mi
7:51 am77 °FScattered clouds.3 mph60%30.08 "Hg10 mi
6:51 am74 °FScattered clouds.6 mph64%30.07 "Hg10 mi
5:51 am73 °FPartly sunny.5 mph62%30.06 "Hg10 mi
4:51 am74 °FPassing clouds.5 mph60%30.05 "Hg10 mi
3:51 am73 °FPassing clouds.7 mph62%30.04 "Hg10 mi
2:51 am76 °FPassing clouds.7 mph54%30.05 "Hg10 mi
1:51 am75 °FPassing clouds.5 mph60%30.06 "Hg10 mi
12:51 am79 °FPassing clouds.7 mph50%30.05 "Hg10 mi
11:51 pm
Mon, Jul 15
79 °FPassing clouds.6 mph54%30.04 "Hg10 mi
10:51 pm81 °FPassing clouds.6 mph51%30.03 "Hg10 mi
9:51 pm82 °FPassing clouds.9 mph48%30.02 "Hg10 mi
8:51 pm83 °FPassing clouds.8 mph46%30.01 "Hg10 mi
Weather by CustomWeather, © 2019

See weather overview

LIVE PARTIAL LUNAR ECLIPSE – Watch the eclipse as it happens